CAPE
0 0 0 0 0 0 0 14 1 3 6 206 118 130 136 206 64 35 560 552 504 462 292 308 364 818 1004 763 777 660 572 545 506 346 382 644 693 518 1185 1672 1304 846 931 1482 1284 776 580 675 730 953 588 742 982 1962 1771 2120 2024 1758 1435 1903 2185 1821 1331 1317 1430 1546 1506 1405 1542 1490 2821 1248 1726 1978 2135 1677 799 763 1143 1051 1137 735 628 1091 1296 1169 1098
0 0 0 0 0 0 0 0 0 0 0 0 0 35 270 172 233 206 319 661 523 1102 548 463 1255 1223 930 719 644 729 546 487 526 429 350 30 327 520 623 763 1241 1270 1599 1340 1236 1178 771 789 830 821 774 761 793 1235 1315 1565 2021 2387 1733 2177 2192 2092 1668 1636 1888 2124 1985 2515 2644 2592 4290 4313 2450 2472 2156 2252 2468 1993 1500 1196 1362 766 916 1042 932 903 850
0 0 0 0 0 0 0 0 0 0 0 1 0 0 0 9 42 331 188 234 443 1181 1170 1229 1249 1080 876 500 519 444 656 590 487 399 324 245 138 535 331 576 703 1127 1356 1131 755 665 498 481 806 537 842 1010 811 989 926 909 1190 1407 1864 2359 2366 2375 2212 2140 2363 2932 3318 2783 2301 3105 3975 4237 4161 3576 3475 3202 3097 2864 2790 2734 2871 1161 727 1012 887 798 845
0 0 0 0 0 0 0 0 19 14 2 1 3 1 6 8 138 177 249 322 815 1117 1469 1518 1289 1014 902 706 601 599 666 654 630 447 308 222 418 634 815 869 780 824 1051 1132 737 584 557 449 834 1021 948 926 748 786 1080 1128 1294 1176 1529 2222 2394 2492 2824 3004 3240 3402 3378 2749 2692 3747 3702 3823 3892 3864 3631 3428 3212 2990 2917 2870 2394 1817 1494 1302 1214 1056 902
0 0 0 0 0 0 0 21 27 25 10 19 2 6 113 72 93 133 69 362 1055 1373 1324 1129 947 1026 985 848 742 738 840 996 619 308 340 580 654 841 714 857 916 824 871 667 613 543 787 820 905 654 1091 951 911 708 946 1252 1153 1408 1236 1495 1299 1862 2622 2932 2581 1976 1698 2181 3080 3790 3676 3811 3773 3447 3275 3194 3138 3256 3063 2482 1966 2189 1964 1722 1484 1264 989
0 0 0 0 0 0 52 15 39 3 31 2 5 31 7 389 0 36 214 592 1117 1368 1274 1267 1092 896 802 909 709 692 810 910 756 635 700 690 664 586 520 613 637 579 570 656 873 988 814 567 1408 1168 976 1067 1003 1015 989 1258 1430 1177 1332 1307 1544 1500 1709 2273 2018 2105 2290 2703 3618 4098 4182 3927 3715 3440 3392 3087 3092 3006 3226 2854 2237 2030 1881 1800 1667 1558 1318
0 0 0 0 0 9 33 36 15 2 0 2 0 0 5 376 955 1285 1500 1092 1376 1534 1221 1025 912 796 796 867 850 859 803 831 777 802 804 722 662 581 444 438 509 440 406 317 452 569 625 617 900 1166 697 1001 1200 1212 1303 1737 1848 1693 1513 1119 1068 1190 1248 2384 2842 2840 2287 2808 3172 3460 3754 3845 3886 3976 4087 3729 3528 3427 3354 2589 1992 1668 1580 1543 1485 1464 1398
0 0 0 0 0 106 74 48 36 7 0 0 0 119 728 895 1062 1415 1346 1599 1523 1431 1203 1131 1048 1017 970 938 925 890 806 804 702 794 743 676 625 568 506 456 426 327 323 332 250 313 427 630 503 903 705 806 864 920 1218 1504 1543 1300 1167 1209 1192 1127 1352 2164 2766 2513 2350 2436 2594 2812 3321 3617 3713 3501 3570 3998 3790 3667 3255 2998 2463 2066 1717 1563 1486 1325 1212
0 0 0 0 0 0 55 108 75 6 19 0 0 179 541 679 707 1209 1546 1415 1466 1365 1181 954 1027 927 809 882 826 801 819 683 597 508 432 467 448 452 423 430 377 307 219 239 239 261 422 537 664 798 533 701 829 833 1070 1427 1452 1508 1638 1880 1887 1853 1725 1883 2086 1958 1726 1765 2131 2304 2810 3223 3357 3435 3263 3321 3294 3185 3024 2766 2624 2350 1965 1662 1510 1335 1183
0 0 0 0 0 0 45 48 48 6 4 0 0 101 286 477 633 1221 1531 1524 1224 1085 997 1040 967 933 1138 1160 944 745 711 636 561 433 443 387 307 322 404 351 356 332 214 190 205 44 3 343 624 784 665 915 955 1234 1499 1640 1712 1706 1872 1873 1771 1498 1540 1459 1377 1258 1620 1854 2006 2360 2738 2870 2881 2806 2730 2630 2762 2726 2705 2475 2079 2017 1834 1520 1328 1318 1306
0 0 0 0 0 35 77 92 4 7 7 5 8 30 287 374 663 1041 1211 1145 1228 1146 927 671 753 824 642 893 1037 754 767 726 505 396 373 384 397 416 439 417 394 259 161 153 68 0 0 0 534 913 1000 1161 1352 1476 1691 1538 1502 1382 1373 1422 1372 1442 1467 1442 1241 1305 1680 2037 2244 2411 2390 2376 2268 2089 1927 1866 1884 1879 1943 1876 1738 1487 1338 1281 1225 1180 1234
0 0 0 0 0 60 47 169 18 0 0 13 0 0 184 70 284 1014 1333 1303 1334 1158 996 640 888 1015 965 857 903 807 660 472 437 450 478 447 480 527 518 463 358 286 72 4 0 0 183 289 485 859 1361 1553 1403 1437 1395 1356 1299 1228 1176 1087 883 1150 1556 1472 1456 1570 1910 1932 2036 2185 2204 1914 1691 1640 1643 1630 1639 1414 1421 1449 1195 1092 922 1002 1085 921 1012
0 0 0 0 0 179 235 84 39 10 0 0 0 48 207 367 414 328 1102 1158 1276 1262 840 796 1150 941 969 910 838 834 670 564 476 425 606 570 571 607 607 495 404 277 248 1 0 1 143 556 603 1057 1543 1364 1177 1173 1322 1383 1359 1400 1406 1574 1133 973 1409 1474 1331 1075 1218 1194 1506 1528 1539 1552 1544 1435 1293 1264 1126 1019 865 710 721 705 506 558 753 755 523
0 1 0 0 112 92 92 100 164 138 55 44 324 204 288 671 691 866 1115 1212 1382 1304 1312 1251 1128 880 935 929 824 717 726 870 588 490 454 491 541 569 518 509 427 327 291 55 2 0 0 200 311 800 1353 1629 1478 1502 1472 1535 1303 1242 1234 1245 1178 783 1265 1283 1212 1003 922 1261 1177 1204 1165 1075 901 811 615 667 410 139 115 105 160 164 143 69 112 178 90
1 1 0 0 37 52 147 62 251 242 262 202 167 356 298 374 764 954 1145 1213 1202 1458 1199 1170 1079 1023 906 807 708 726 744 733 639 490 432 512 502 518 522 430 344 117 92 0 0 0 116 64 318 398 492 805 1050 1119 1139 1044 968 901 884 798 731 580 725 809 887 857 802 816 688 592 602 540 364 364 203 79 0 3 17 0 0 0 3 0 0 0 0
0 3 29 95 14 39 130 77 266 441 464 207 251 83 174 823 923 989 872 1164 1202 1102 1046 1060 1020 970 859 875 870 744 719 623 486 308 340 379 313 319 224 234 235 0 0 0 36 0 255 301 214 287 422 679 722 730 702 681 702 539 284 340 385 428 427 501 556 510 493 514 261 0 27 0 0 0 0 0 0 0 0 0 1 0 0 0 0 0 0
41 55 27 12 196 90 162 290 164 712 651 874 530 249 232 360 781 822 816 1127 959 1239 1282 1074 986 810 824 916 825 796 618 459 390 306 327 268 235 149 80 26 0 0 0 0 150 130 313 438 336 354 90 373 627 682 523 383 314 269 273 223 222 233 250 194 181 122 52 34 0 144 139 47 0 0 0 0 0 0 0 0 0 0 3 6 0 0 0
130 123 28 221 223 211 120 140 157 230 121 95 249 291 389 618 796 879 858 1146 944 1248 1229 1029 936 850 810 876 778 649 530 422 340 285 286 280 335 310 343 384 300 290 255 209 234 208 418 353 269 252 108 84 163 218 297 226 143 130 129 131 127 112 99 89 94 74 18 73 15 27 21 4 6 2 0 0 1 0 0 0 0 4 13 4 0 0 0
0 0 388 251 255 180 134 211 528 878 921 784 747 519 429 898 895 820 757 931 1104 1220 1191 1036 909 840 746 762 726 703 513 378 308 194 30 284 353 381 379 318 0 0 264 268 182 356 398 305 217 154 158 185 229 178 184 165 127 109 108 111 104 99 88 111 101 74 51 45 41 44 29 5 2 0 0 0 0 0 0 0 0 1 4 6 17 20 4
3 4 102 134 348 508 444 303 257 433 1004 1239 914 700 823 1127 1030 955 821 927 1184 1072 1099 951 759 713 732 701 670 595 427 326 221 163 19 0 152 282 284 148 0 271 144 0 0 380 384 437 213 171 180 197 164 231 298 249 198 178 154 142 136 115 107 81 58 39 31 16 15 24 16 0 0 5 1 0 0 0 0 0 0 0 0 0 0 0 0
73 139 132 326 467 593 642 534 602 525 315 366 648 471 527 1463 1394 1145 928 1061 1142 954 801 698 644 668 672 680 639 547 384 321 121 0 0 0 0 34 34 77 0 255 192 0 0 0 360 321 116 5 185 164 16 251 253 119 277 265 187 127 104 92 78 71 49 18 0 0 0 0 0 0 0 0 0 0 0 0 0 0 0 0 0 0 0 0 0
0 237 353 24 111 441 287 378 427 461 504 249 192 431 893 1491 1447 1283 1341 1354 1312 1085 920 738 682 694 645 648 531 436 365 291 237 66 0 0 0 0 0 0 0 0 0 0 0 59 137 281 108 19 103 94 111 188 172 234 241 235 200 178 136 114 67 49 0 0 0 0 0 0 0 0 0 0 0 0 0 0 0 0 0 0 0 0 0 0 0
161 244 382 752 384 385 550 434 629 549 532 1132 1273 1336 1304 1381 1548 1480 1286 1241 1168 990 845 658 607 551 522 417 303 313 280 230 177 118 0 0 0 0 11 66 0 0 0 0 0 2 56 158 131 133 0 0 0 0 0 115 168 103 58 59 36 39 12 16 0 0 0 0 0 0 0 0 0 0 0 0 0 0 0 0 0 0 0 0 0 0 0
339 482 530 499 555 604 665 631 535 464 448 806 1331 1156 1117 1097 1183 1273 1364 1047 875 627 487 422 388 347 262 88 4 58 79 69 0 0 4 9 17 46 59 117 56 0 0 4 12 9 13 122 17 20 17 19 18 19 13 1 0 24 0 0 0 0 0 0 0 0 0 0 0 0 0 0 0 0 0 0 0 0 0 0 0 0 0 0 0 0 0
560 649 621 639 561 567 514 505 514 548 566 634 851 874 712 677 677 1103 1068 784 792 466 321 272 126 92 54 60 76 37 6 0 0 1 4 12 0 16 63 0 0 0 0 3 6 7 4 2 41 4 0 0 0 0 0 0 0 0 0 0 0 0 0 1 14 50 4 3 2 0 0 0 0 0 0 0 0 0 0 0 0 0 0 0 0 0 0
530 584 349 333 410 443 450 422 478 516 542 530 563 620 578 1001 748 824 858 684 465 381 266 166 47 43 38 60 28 13 3 0 0 0 0 0 0 2 12 5 7 7 4 3 2 4 1 0 0 0 0 0 0 0 0 0 0 0 0 0 0 0 0 0 0 0 0 0 1 2 2 0 0 0 0 0 0 0 0 0 0 0 0 0 0 0 0
808 626 339 209 239 329 402 477 518 510 441 368 391 374 421 486 478 464 465 446 370 214 153 113 66 2 2 3 12 0 0 0 0 13 52 84 133 128 90 111 124 58 26 11 15 37 24 6 3 1 1 0 0 0 0 0 0 0 0 0 0 6 0 0 0 0 0 0 0 0 11 91 173 29 24 40 26 0 0 0 0 0 0 0 0 0 0
704 750 502 217 184 342 414 556 554 458 415 399 332 320 268 242 245 269 255 280 210 59 0 0 15 6 10 7 0 0 0 2 107 129 55 81 110 104 94 77 56 34 22 12 15 13 2 0 0 0 0 0 0 0 0 0 0 0 0 0 0 0 0 0 0 0 0 0 0 0 0 0 1 4 12 27 46 84 14 23 13 0 0 0 0 0 0
563 641 567 450 460 572 567 497 444 404 324 259 217 198 183 132 99 61 9 0 0 0 0 0 1 0 23 0 0 0 24 132 149 104 93 119 136 98 89 68 33 21 13 3 0 0 8 2 4 0 0 0 0 0 0 0 0 0 0 0 0 0 0 0 0 0 0 0 0 0 0 0 0 0 0 0 0 0 0 3 16 25 0 1 0 0 0
618 494 505 525 531 485 506 470 392 301 264 181 124 106 62 18 1 0 0 0 0 0 1 8 0 0 0 1 7 50 116 227 239 229 224 174 115 62 25 24 25 24 8 0 0 0 0 0 0 0 0 0 0 0 0 0 0 0 0 0 0 0 0 0 0 0 0 0 0 0 0 0 0 0 0 0 0 0 0 0 0 0 0 5 0 0 0
482 483 485 518 508 497 453 344 270 236 242 181 114 74 36 7 0 0 0 0 12 3 18 41 79 122 149 237 304 307 248 176 136 146 168 120 49 31 20 29 35 11 0 0 4 5 0 0 0 0 0 0 0 0 0 0 0 0 0 0 0 0 0 0 0 0 0 0 0 0 0 0 0 0 0 0 0 0 0 0 0 0 0 10 17 23 27
613 632 547 494 506 455 361 315 200 180 139 131 111 88 55 25 10 2 7 10 26 62 46 57 81 102 116 143 175 166 123 88 108 147 115 117 104 66 58 55 42 26 23 28 16 0 0 0 0 0 0 0 0 0 0 0 0 0 0 0 0 0 0 0 0 0 0 0 0 0 0 0 0 0 0 0 0 0 0 0 0 0 0 0 0 0 0
505 541 454 329 452 437 349 240 258 193 132 89 65 84 70 28 9 7 27 68 102 95 74 59 46 45 58 77 102 116 95 81 76 53 104 75 57 54 39 31 20 11 14 15 3 0 0 0 0 0 0 0 0 0 0 0 0 0 0 0 0 0 0 0 0 0 0 0 0 0 0 0 0 0 0 0 0 0 0 0 0 0 0 2 0 0 0
327 382 358 379 485 494 367 274 219 183 113 38 22 44 49 39 36 43 43 50 54 54 63 48 50 45 45 51 65 86 86 51 45 8 48 52 33 63 43 26 23 8 2 9 3 0 0 0 0 0 0 0 0 0 0 0 0 0 0 0 0 0 0 0 0 0 0 0 0 0 0 0 0 0 0 0 0 0 2 0 0 0 0 0 0 0 0
862 887 715 633 735 567 457 282 216 150 58 1 0 13 73 86 70 60 42 39 52 59 70 81 70 56 56 43 43 42 59 50 34 36 27 34 38 19 1 0 0 0 0 0 0 0 0 0 0 0 0 0 0 0 0 0 0 0 0 0 0 0 0 0 0 0 0 0 0 0 0 0 0 0 1 0 0 0 0 0 0 0 0 0 0 0 0
564 564 422 341 580 567 485 367 169 112 45 1 0 6 62 102 99 102 108 80 81 74 89 98 74 61 33 23 19 3 0 3 41 46 36 51 50 13 0 0 0 0 0 0 0 0 0 0 0 0 0 0 0 0 0 0 0 0 8 0 0 0 0 0 0 0 0 0 0 0 0 2 4 0 0 0 0 0 0 0 0 0 0 0 0 0 0
714 450 452 621 751 586 453 392 247 169 36 0 0 0 23 62 75 82 99 75 77 81 105 112 77 62 57 4 4 18 3 0 0 0 8 14 18 1 0 0 0 0 0 0 0 0 0 0 0 0 0 0 0 0 0 0 0 0 2 0 0 0 0 0 0 0 0 0 0 0 0 1 0 0 0 0 0 0 0 0 0 0 0 0 0 0 0
890 600 634 803 866 719 532 358 333 221 40 0 0 0 4 18 52 76 78 88 87 77 86 88 65 69 62 42 30 0 0 0 0 0 0 0 0 0 0 0 0 0 0 0 0 0 0 0 0 0 0 0 0 0 0 0 4 0 0 0 0 0 0 0 0 0 0 0 0 0 0 0 0 0 0 0 0 0 0 0 0 0 0 0 0 0 0
843 750 553 741 753 676 714 849 478 210 198 40 0 0 6 49 69 70 104 123 106 82 76 78 70 51 19 9 0 0 0 0 0 0 0 0 0 0 0 0 0 0 0 0 0 0 0 0 0 0 0 0 0 0 0 0 0 0 0 0 0 0 0 0 0 0 0 0 0 0 0 0 0 0 0 0 0 0 0 0 0 0 0 0 0 0 0
803 626 484 512 960 766 478 583 468 286 242 213 0 4 37 94 146 148 152 152 119 93 108 94 56 16 8 0 0 0 0 2 5 0 0 0 0 0 0 0 0 0 0 0 0 0 0 0 0 0 0 0 0 0 0 0 0 0 0 0 0 0 0 0 0 0 0 0 0 1 0 0 0 0 0 0 0 0 0 0 0 0 0 0 0 0 0
804 673 540 431 1000 959 453 432 528 355 288 258 82 44 83 138 265 326 346 240 120 128 131 76 20 10 5 0 0 0 0 0 0 0 0 0 0 0 0 0 0 0 0 0 0 0 0 0 0 0 0 0 0 0 0 0 0 0 0 0 0 0 0 0 0 0 0 0 0 0 0 0 0 0 0 0 0 0 0 0 0 0 0 0 0 0 0
1014 833 601 500 895 1068 640 650 749 430 344 278 99 174 182 274 468 464 425 274 128 162 90 4 14 3 3 1 0 0 0 0 0 0 0 0 0 0 0 0 0 0 0 0 0 0 0 0 0 0 0 0 0 0 0 0 0 0 0 0 0 0 0 0 0 0 0 0 0 0 0 0 0 0 0 0 0 0 0 0 0 0 0 0 0 0 0
1118 1158 855 750 801 951 683 688 781 676 602 406 266 406 426 533 682 561 408 232 161 106 1 0 6 21 17 1 0 0 0 0 0 0 0 0 0 0 0 0 0 0 0 0 0 0 0 0 0 0 0 0 0 0 0 0 0 0 0 0 0 0 0 0 0 0 0 0 0 0 0 0 0 0 0 0 0 0 0 0 0 0 0 0 0 0 0
1185 1214 1009 889 969 892 572 535 785 792 856 786 725 742 727 701 665 518 360 201 128 28 0 0 3 2 0 0 0 0 0 0 0 0 0 0 0 0 0 0 0 0 0 0 0 0 0 0 0 0 0 0 0 0 0 0 0 0 0 0 0 0 0 0 0 0 0 0 0 0 0 0 0 0 0 0 0 0 0 0 0 0 0 0 0 0 0
1336 1273 938 895 1089 797 611 498 836 881 853 814 875 856 809 682 624 518 360 204 80 44 10 16 12 1 0 0 0 0 0 0 0 0 0 0 0 0 0 0 0 0 0 0 0 0 0 0 0 0 0 0 0 0 0 0 0 0 0 0 0 0 0 0 0 0 0 0 0 0 0 0 0 0 0 0 0 0 0 0 0 0 0 0 0 0 0
1318 1290 1295 1246 1300 828 658 659 950 931 893 912 916 878 737 634 589 463 263 189 109 75 26 51 21 0 0 0 0 0 0 0 0 0 0 0 0 0 0 0 0 0 0 0 0 0 0 0 0 0 0 0 0 0 0 0 0 0 0 0 0 0 0 0 0 0 0 0 0 0 0 0 0 0 0 0 0 0 0 0 0 0 0 0 0 0 0
1003 1036 1118 1150 1085 841 616 939 959 941 883 866 844 816 713 586 494 398 410 265 199 100 68 121 50 7 10 0 0 0 0 0 0 0 0 0 0 0 0 0 0 0 0 0 0 0 0 0 0 0 0 0 0 0 0 0 0 0 0 0 0 0 0 0 0 0 0 0 0 0 0 0 0 0 0 0 0 0 0 0 0 0 0 0 0 0 0
750 816 870 996 874 691 742 812 866 849 827 772 732 735 674 584 466 524 512 334 200 118 200 215 155 111 101 16 0 0 0 0 0 0 0 0 0 0 0 0 0 0 0 0 0 0 0 0 0 0 0 0 0 0 0 0 0 0 0 0 0 0 0 0 0 0 0 0 0 0 0 0 0 0 0 0 0 0 0 0 0 0 0 0 0 0 0
640 745 848 855 713 574 593 850 741 740 749 698 710 642 601 555 554 590 449 312 282 319 373 305 247 202 120 21 2 0 0 0 0 0 0 0 0 0 0 0 0 0 0 0 0 0 0 0 0 0 0 0 0 0 0 0 0 0 0 0 0 0 0 0 0 0 0 0 0 0 0 0 0 0 0 0 0 0 0 0 0 0 0 0 0 0 0
563 572 796 610 504 482 560 590 531 661 700 674 743 731 704 661 590 504 468 432 429 416 389 274 176 95 20 0 0 0 0 0 0 0 0 0 0 0 0 0 0 0 0 0 0 0 0 0 0 0 0 0 0 0 0 0 0 0 0 0 0 0 0 0 0 0 0 0 0 0 0 0 0 0 0 0 0 0 0 0 0 0 0 0 0 0 0
502 452 546 652 600 505 427 419 587 700 652 633 759 764 702 620 563 589 624 598 488 412 247 164 86 18 0 0 0 0 0 0 0 0 0 0 0 0 0 0 0 0 0 0 0 0 0 0 0 0 0 0 0 0 0 0 0 0 0 0 0 0 0 0 0 0 0 0 0 0 0 0 0 0 0 0 0 0 0 0 0 0 0 0 0 0 0
453 446 441 547 586 427 334 535 720 806 731 734 728 724 606 582 624 686 720 616 464 370 198 130 58 4 0 0 0 0 0 0 0 0 0 0 0 0 0 0 0 0 0 0 0 0 0 0 0 0 0 0 0 0 0 0 0 0 0 0 0 0 0 0 0 0 0 0 0 0 0 0 0 0 0 0 0 0 0 0 0 0 0 0 0 0 0
Wind_Speed
nan nan nan nan nan nan nan nan nan nan nan 27 24 17 17 21 nan nan 16 15 14 15 13 15 18 20 15 16 19 16 17 19 20 23 29 30 31 29 25 23 21 20 20 26 33 35 34 36 39 40 42 41 36 32 30 30 29 27 26 26 24 24 23 21 20 21 20 19 18 17 17 14 15 14 16 18 17 17 17 15 15 23 20 21 23 25 22
nan nan nan nan nan nan nan nan nan nan nan nan nan nan 19 22 14 15 20 17 16 19 19 19 23 26 26 24 18 17 20 22 22 22 26 nan 28 30 30 26 26 25 25 26 31 36 37 36 36 40 42 39 39 42 39 33 31 31 30 28 26 26 24 23 23 23 21 20 22 23 23 20 17 18 19 21 22 20 21 19 19 21 24 22 24 24 22
nan nan nan nan nan nan nan nan nan nan nan nan nan nan nan nan nan 16 15 18 17 16 21 25 24 22 21 25 25 19 17 19 19 19 21 21 23 24 24 30 30 30 26 24 27 31 33 34 35 36 40 40 39 39 37 39 40 37 31 29 28 26 25 24 24 24 22 20 22 23 22 23 23 23 24 23 23 22 23 23 26 24 23 25 25 26 25
nan nan nan nan nan nan nan nan nan nan nan nan nan nan nan nan 18 21 20 18 16 13 20 25 24 21 22 24 24 21 19 19 19 18 21 21 23 25 29 27 22 22 24 23 26 28 30 32 32 34 39 43 41 36 35 33 31 34 40 38 31 27 27 28 28 26 25 24 24 24 23 23 24 23 24 23 23 23 26 29 27 24 26 26 25 25 25
nan nan nan nan nan nan nan nan nan nan nan nan nan nan 24 nan nan 17 nan 16 14 18 21 27 24 23 22 22 21 21 21 22 21 22 21 19 20 28 30 28 26 25 26 25 26 26 28 29 29 30 37 41 39 36 35 33 33 35 35 32 35 36 39 43 41 41 41 37 28 26 24 23 23 24 24 25 25 26 28 28 26 25 26 28 27 26 28
nan nan nan nan nan nan nan nan nan nan nan nan nan nan nan 22 nan nan 16 19 20 23 24 28 25 24 20 18 20 22 22 21 19 19 21 21 22 24 28 29 24 23 25 25 23 20 21 22 25 28 32 37 40 41 39 36 37 40 37 32 35 39 39 37 37 34 32 28 23 24 24 24 24 25 25 26 27 27 28 28 26 26 28 29 29 29 30
nan nan nan nan nan nan nan nan nan nan nan nan nan nan nan 30 29 30 28 32 31 26 25 25 25 25 22 21 22 24 23 20 17 19 23 27 24 23 25 27 25 23 25 28 27 22 19 23 29 28 29 34 41 44 42 41 42 45 43 39 43 45 42 35 30 29 29 30 31 28 28 27 27 27 27 28 29 28 29 29 28 28 29 30 30 32 34
nan nan nan nan nan 16 nan nan nan nan nan nan nan 24 28 23 24 27 24 26 28 26 25 25 25 25 25 24 25 26 26 25 23 21 21 23 25 24 25 25 25 25 25 26 26 23 20 22 22 22 27 34 40 44 45 45 45 45 46 46 46 45 40 28 23 27 31 35 35 32 28 27 25 26 27 29 31 30 32 33 32 32 30 29 31 34 35
nan nan nan nan nan nan nan 16 nan nan nan nan nan 18 18 16 18 24 26 24 25 26 24 23 24 25 24 24 24 27 26 25 26 25 22 21 23 24 25 26 25 23 24 27 29 28 25 19 15 21 30 35 41 44 48 51 51 48 48 50 49 46 40 29 26 30 33 37 36 32 29 29 28 29 30 32 31 29 32 34 35 34 32 29 29 32 34
nan nan nan nan nan nan nan nan nan nan nan nan nan 21 19 15 17 21 23 22 22 23 22 22 22 22 23 22 23 26 25 24 25 25 23 20 20 24 28 31 28 23 23 24 28 nan nan 24 14 23 28 36 43 45 47 53 55 53 53 55 50 45 41 35 35 36 35 35 35 33 32 32 30 31 32 31 29 29 31 34 34 32 32 32 33 35 36
nan nan nan nan nan nan nan nan nan nan nan nan nan nan 22 12 16 22 21 19 20 21 21 22 20 23 24 24 27 27 27 25 24 26 26 24 25 25 27 30 29 28 27 27 nan nan nan nan 31 34 28 37 48 49 50 54 55 57 58 57 50 44 42 42 43 43 40 37 35 35 34 34 32 32 33 34 35 35 35 36 34 32 33 36 36 38 38
nan nan nan nan nan nan nan 24 nan nan nan nan nan nan 16 nan 17 21 19 18 19 19 20 22 20 22 23 26 25 28 28 26 25 25 26 27 28 27 26 28 26 25 nan nan nan nan 24 24 31 30 32 38 46 49 52 55 57 58 57 54 48 44 46 46 39 38 36 35 37 37 35 33 34 35 36 37 38 37 37 35 35 36 37 38 41 40 40
nan nan nan nan nan 20 20 nan nan nan nan nan nan nan 16 18 19 18 19 18 18 20 21 18 19 21 23 24 26 25 25 26 25 24 24 24 24 24 23 24 25 25 26 nan nan nan 31 26 27 28 32 34 36 40 49 55 57 55 53 51 49 44 42 39 33 32 30 33 39 38 36 35 37 38 37 39 41 43 42 36 39 43 45 42 43 42 39
nan nan nan nan 16 nan nan 24 29 22 nan nan 21 16 20 21 19 18 19 19 20 20 20 19 19 21 23 23 24 23 21 23 24 25 24 20 19 21 20 22 22 25 27 nan nan nan nan 31 29 28 29 29 26 30 39 47 49 47 46 46 47 47 44 41 38 37 36 36 39 41 39 39 42 41 39 39 39 41 39 38 40 44 46 nan 37 39 nan
nan nan nan nan nan nan 23 nan 25 23 23 19 20 22 20 20 23 20 18 19 21 21 20 20 21 22 20 20 20 21 20 22 23 24 24 21 21 21 20 22 27 28 nan nan nan nan 29 nan 24 21 24 28 28 29 35 39 43 47 49 49 49 49 48 44 41 41 39 37 38 41 42 43 44 43 42 nan nan nan nan nan nan nan nan nan nan nan nan
nan nan nan nan nan nan 20 nan 23 20 20 18 20 nan 23 21 19 20 21 21 20 20 22 21 20 19 20 16 16 19 21 23 23 23 23 24 25 24 23 21 23 nan nan nan nan nan 23 24 22 20 21 25 28 33 34 34 39 43 48 49 49 49 47 43 42 43 43 42 40 nan nan nan nan nan nan nan nan nan nan nan nan nan nan nan nan nan nan
nan nan nan nan 17 nan 18 22 19 18 16 19 20 22 28 23 17 18 24 23 21 18 22 21 20 18 16 15 15 16 15 17 20 21 21 22 25 28 nan nan nan nan nan nan 17 19 20 21 20 22 nan 26 28 29 28 31 34 38 41 42 42 44 44 42 42 41 nan nan nan 39 40 nan nan nan nan nan nan nan nan nan nan nan nan nan nan nan nan
24 20 nan 21 21 23 24 27 21 20 18 nan 28 29 29 23 19 19 23 23 22 21 22 22 18 18 18 16 15 14 13 14 17 19 21 24 27 27 24 22 23 23 23 22 19 19 20 19 20 21 23 nan 25 24 26 29 31 35 38 40 40 39 nan nan nan nan nan nan nan nan nan nan nan nan nan nan nan nan nan nan nan nan nan nan nan nan nan
nan nan 25 28 29 30 28 27 26 26 25 25 26 28 27 25 20 20 21 25 22 22 20 21 21 22 19 16 14 15 17 15 15 19 nan 24 27 27 26 25 nan nan 25 25 22 18 18 16 17 19 20 21 21 22 25 28 31 34 37 40 41 nan nan 39 40 nan nan nan nan nan nan nan nan nan nan nan nan nan nan nan nan nan nan nan nan nan nan
nan nan 22 25 31 30 29 28 28 27 25 26 27 26 28 29 25 24 22 24 24 22 21 21 23 22 18 18 16 15 16 17 21 23 nan nan 25 26 27 27 nan 25 27 nan nan 21 22 22 19 17 18 20 19 16 15 17 22 27 31 34 35 35 33 nan nan nan nan nan nan nan nan nan nan nan nan nan nan nan nan nan nan nan nan nan nan nan nan
nan 23 26 29 36 31 30 30 28 28 28 25 25 27 28 31 30 27 24 24 25 23 21 22 22 22 18 18 18 17 19 22 22 nan nan nan nan nan nan nan nan 27 25 nan nan nan 22 23 19 nan 15 15 nan 12 12 8 8 14 17 18 18 nan nan nan nan nan nan nan nan nan nan nan nan nan nan nan nan nan nan nan nan nan nan nan nan nan nan
nan 26 22 nan 26 24 24 25 25 27 28 27 25 24 27 31 29 28 26 24 24 25 23 21 22 23 21 21 21 21 21 24 26 nan nan nan nan nan nan nan nan nan nan nan nan nan 18 17 12 nan 10 nan 13 16 15 14 13 11 9 10 11 12 nan nan nan nan nan nan nan nan nan nan nan nan nan nan nan nan nan nan nan nan nan nan nan nan nan
26 21 20 21 29 27 23 24 26 27 26 28 28 26 26 27 27 25 25 26 26 26 22 20 23 24 25 26 26 25 24 26 27 27 nan nan nan nan nan nan nan nan nan nan nan nan nan 21 21 16 nan nan nan nan nan 12 15 16 nan nan nan nan nan nan nan nan nan nan nan nan nan nan nan nan nan nan nan nan nan nan nan nan nan nan nan nan nan
30 26 28 29 30 28 26 29 29 28 25 24 26 25 25 24 23 22 22 24 28 26 24 23 23 27 28 nan nan nan nan nan nan nan nan nan nan nan nan 30 nan nan nan nan nan nan nan 27 nan nan nan nan nan nan nan nan nan nan nan nan nan nan nan nan nan nan nan nan nan nan nan nan nan nan nan nan nan nan nan nan nan nan nan nan nan nan nan
25 25 27 30 33 33 32 32 32 31 31 30 29 27 24 23 23 22 22 26 25 24 28 25 26 nan nan nan nan nan nan nan nan nan nan nan nan nan nan nan nan nan nan nan nan nan nan nan nan nan nan nan nan nan nan nan nan nan nan nan nan nan nan nan nan nan nan nan nan nan nan nan nan nan nan nan nan nan nan nan nan nan nan nan nan nan nan
31 29 32 34 36 34 31 32 33 32 32 31 29 27 26 26 26 26 29 31 33 26 27 29 nan nan nan nan nan nan nan nan nan nan nan nan nan nan nan nan nan nan nan nan nan nan nan nan nan nan nan nan nan nan nan nan nan nan nan nan nan nan nan nan nan nan nan nan nan nan nan nan nan nan nan nan nan nan nan nan nan nan nan nan nan nan nan
35 34 36 40 37 31 29 33 32 33 33 31 32 29 28 29 32 32 32 32 30 32 31 29 nan nan nan nan nan nan nan nan nan nan nan nan 35 35 nan 37 36 nan nan nan nan nan nan nan nan nan nan nan nan nan nan nan nan nan nan nan nan nan nan nan nan nan nan nan nan nan nan nan 16 nan nan nan nan nan nan nan nan nan nan nan nan nan nan
36 35 36 35 34 34 35 38 37 36 34 33 33 32 30 28 29 31 32 32 32 nan nan nan nan nan nan nan nan nan nan nan 32 33 nan nan 37 38 nan nan nan nan nan nan nan nan nan nan nan nan nan nan nan nan nan nan nan nan nan nan nan nan nan nan nan nan nan nan nan nan nan nan nan nan nan nan nan nan nan nan nan nan nan nan nan nan nan
34 35 35 37 39 37 37 37 38 37 36 33 31 29 29 30 nan nan nan nan nan nan nan nan nan nan nan nan nan nan nan 33 34 34 nan 36 37 nan nan nan nan nan nan nan nan nan nan nan nan nan nan nan nan nan nan nan nan nan nan nan nan nan nan nan nan nan nan nan nan nan nan nan nan nan nan nan nan nan nan nan nan nan nan nan nan nan nan
35 36 38 36 36 36 36 33 33 32 32 31 31 29 nan nan nan nan nan nan nan nan nan nan nan nan nan nan nan nan 30 32 33 32 34 36 36 nan nan nan nan nan nan nan nan nan nan nan nan nan nan nan nan nan nan nan nan nan nan nan nan nan nan nan nan nan nan nan nan nan nan nan nan nan nan nan nan nan nan nan nan nan nan nan nan nan nan
35 36 35 34 34 33 34 32 30 29 29 29 30 nan nan nan nan nan nan nan nan nan nan nan nan 29 29 28 27 29 31 31 31 32 34 34 nan nan nan nan nan nan nan nan nan nan nan nan nan nan nan nan nan nan nan nan nan nan nan nan nan nan nan nan nan nan nan nan nan nan nan nan nan nan nan nan nan nan nan nan nan nan nan nan nan nan nan
35 34 33 31 31 31 30 30 30 28 27 30 30 nan nan nan nan nan nan nan nan nan nan nan nan 27 26 27 27 29 30 nan 30 31 31 31 33 nan nan nan nan nan nan nan nan nan nan nan nan nan nan nan nan nan nan nan nan nan nan nan nan nan nan nan nan nan nan nan nan nan nan nan nan nan nan nan nan nan nan nan nan nan nan nan nan nan nan
34 32 29 28 29 30 28 28 31 30 29 nan nan nan nan nan nan nan nan nan 26 nan nan nan nan nan nan nan 27 27 nan nan nan nan 27 nan nan nan nan nan nan nan nan nan nan nan nan nan nan nan nan nan nan nan nan nan nan nan nan nan nan nan nan nan nan nan nan nan nan nan nan nan nan nan nan nan nan nan nan nan nan nan nan nan nan nan nan
31 28 28 28 30 30 29 28 29 30 31 nan nan nan nan nan nan nan nan nan nan nan nan nan nan nan nan nan nan nan nan nan nan nan nan nan nan nan nan nan nan nan nan nan nan nan nan nan nan nan nan nan nan nan nan nan nan nan nan nan nan nan nan nan nan nan nan nan nan nan nan nan nan nan nan nan nan nan nan nan nan nan nan nan nan nan nan
33 30 29 29 30 31 29 30 30 32 nan nan nan nan nan nan nan nan nan nan nan nan nan nan nan nan nan nan nan nan nan nan nan nan nan nan nan nan nan nan nan nan nan nan nan nan nan nan nan nan nan nan nan nan nan nan nan nan nan nan nan nan nan nan nan nan nan nan nan nan nan nan nan nan nan nan nan nan nan nan nan nan nan nan nan nan nan
33 29 28 28 28 29 30 30 29 29 nan nan nan nan nan 22 nan 26 27 nan nan nan nan nan nan nan nan nan nan nan nan nan nan nan nan nan nan nan nan nan nan nan nan nan nan nan nan nan nan nan nan nan nan nan nan nan nan nan nan nan nan nan nan nan nan nan nan nan nan nan nan nan nan nan nan nan nan nan nan nan nan nan nan nan nan nan nan
29 28 27 26 25 25 29 29 29 28 nan nan nan nan nan nan nan nan nan nan nan nan 18 17 nan nan nan nan nan nan nan nan nan nan nan nan nan nan nan nan nan nan nan nan nan nan nan nan nan nan nan nan nan nan nan nan nan nan nan nan nan nan nan nan nan nan nan nan nan nan nan nan nan nan nan nan nan nan nan nan nan nan nan nan nan nan nan
25 26 27 26 26 26 27 27 28 30 nan nan nan nan nan nan nan nan nan nan nan nan nan nan nan nan nan nan nan nan nan nan nan nan nan nan nan nan nan nan nan nan nan nan nan nan nan nan nan nan nan nan nan nan nan nan nan nan nan nan nan nan nan nan nan nan nan nan nan nan nan nan nan nan nan nan nan nan nan nan nan nan nan nan nan nan nan
24 25 25 25 26 27 27 26 27 26 27 nan nan nan nan nan nan nan 14 12 14 nan nan nan nan nan nan nan nan nan nan nan nan nan nan nan nan nan nan nan nan nan nan nan nan nan nan nan nan nan nan nan nan nan nan nan nan nan nan nan nan nan nan nan nan nan nan nan nan nan nan nan nan nan nan nan nan nan nan nan nan nan nan nan nan nan nan
24 24 25 26 26 25 23 21 21 20 21 22 nan nan nan nan 13 13 13 12 12 nan 11 nan nan nan nan nan nan nan nan nan nan nan nan nan nan nan nan nan nan nan nan nan nan nan nan nan nan nan nan nan nan nan nan nan nan nan nan nan nan nan nan nan nan nan nan nan nan nan nan nan nan nan nan nan nan nan nan nan nan nan nan nan nan nan nan
23 25 25 25 24 20 18 15 16 17 19 19 nan nan nan 12 12 11 12 12 11 10 10 nan nan nan nan nan nan nan nan nan nan nan nan nan nan nan nan nan nan nan nan nan nan nan nan nan nan nan nan nan nan nan nan nan nan nan nan nan nan nan nan nan nan nan nan nan nan nan nan nan nan nan nan nan nan nan nan nan nan nan nan nan nan nan nan
21 22 24 22 20 17 15 15 17 18 18 17 nan 14 14 12 11 11 12 12 11 8 nan nan nan nan nan nan nan nan nan nan nan nan nan nan nan nan nan nan nan nan nan nan nan nan nan nan nan nan nan nan nan nan nan nan nan nan nan nan nan nan nan nan nan nan nan nan nan nan nan nan nan nan nan nan nan nan nan nan nan nan nan nan nan nan nan
21 21 21 20 18 16 16 16 17 18 17 15 14 13 13 13 13 13 13 12 11 9 nan nan nan nan nan nan nan nan nan nan nan nan nan nan nan nan nan nan nan nan nan nan nan nan nan nan nan nan nan nan nan nan nan nan nan nan nan nan nan nan nan nan nan nan nan nan nan nan nan nan nan nan nan nan nan nan nan nan nan nan nan nan nan nan nan
20 19 20 19 18 19 18 17 19 20 19 16 14 13 14 13 14 14 14 12 11 nan nan nan nan nan nan nan nan nan nan nan nan nan nan nan nan nan nan nan nan nan nan nan nan nan nan nan nan nan nan nan nan nan nan nan nan nan nan nan nan nan nan nan nan nan nan nan nan nan nan nan nan nan nan nan nan nan nan nan nan nan nan nan nan nan nan
22 22 20 20 21 22 20 18 19 20 21 20 17 15 15 15 15 15 14 13 nan nan nan nan nan nan nan nan nan nan nan nan nan nan nan nan nan nan nan nan nan nan nan nan nan nan nan nan nan nan nan nan nan nan nan nan nan nan nan nan nan nan nan nan nan nan nan nan nan nan nan nan nan nan nan nan nan nan nan nan nan nan nan nan nan nan nan
24 24 24 24 24 23 22 23 25 27 27 23 19 16 16 16 16 15 13 14 14 nan nan nan nan nan nan nan nan nan nan nan nan nan nan nan nan nan nan nan nan nan nan nan nan nan nan nan nan nan nan nan nan nan nan nan nan nan nan nan nan nan nan nan nan nan nan nan nan nan nan nan nan nan nan nan nan nan nan nan nan nan nan nan nan nan nan
23 23 23 26 29 34 34 28 27 27 26 22 18 16 16 16 16 15 14 14 14 nan nan 13 nan nan nan nan nan nan nan nan nan nan nan nan nan nan nan nan nan nan nan nan nan nan nan nan nan nan nan nan nan nan nan nan nan nan nan nan nan nan nan nan nan nan nan nan nan nan nan nan nan nan nan nan nan nan nan nan nan nan nan nan nan nan nan
20 20 21 21 20 20 20 23 22 22 20 19 19 19 18 17 16 15 15 14 14 14 15 15 14 14 14 nan nan nan nan nan nan nan nan nan nan nan nan nan nan nan nan nan nan nan nan nan nan nan nan nan nan nan nan nan nan nan nan nan nan nan nan nan nan nan nan nan nan nan nan nan nan nan nan nan nan nan nan nan nan nan nan nan nan nan nan
20 21 24 24 22 21 21 21 20 20 22 23 24 23 20 19 17 17 15 15 15 15 15 16 16 16 16 nan nan nan nan nan nan nan nan nan nan nan nan nan nan nan nan nan nan nan nan nan nan nan nan nan nan nan nan nan nan nan nan nan nan nan nan nan nan nan nan nan nan nan nan nan nan nan nan nan nan nan nan nan nan nan nan nan nan nan nan
23 23 23 22 25 30 33 27 19 20 23 24 24 23 21 20 18 16 16 15 15 16 17 17 17 nan nan nan nan nan nan nan nan nan nan nan nan nan nan nan nan nan nan nan nan nan nan nan nan nan nan nan nan nan nan nan nan nan nan nan nan nan nan nan nan nan nan nan nan nan nan nan nan nan nan nan nan nan nan nan nan nan nan nan nan nan nan
21 19 17 17 20 24 24 23 20 23 24 25 24 23 21 19 19 19 17 17 16 17 17 18 nan nan nan nan nan nan nan nan nan nan nan nan nan nan nan nan nan nan nan nan nan nan nan nan nan nan nan nan nan nan nan nan nan nan nan nan nan nan nan nan nan nan nan nan nan nan nan nan nan nan nan nan nan nan nan nan nan nan nan nan nan nan nan
18 19 22 25 30 37 40 37 29 28 28 27 25 24 22 21 21 19 17 16 17 17 18 20 nan nan nan nan nan nan nan nan nan nan nan nan nan nan nan nan nan nan nan nan nan nan nan nan nan nan nan nan nan nan nan nan nan nan nan nan nan nan nan nan nan nan nan nan nan nan nan nan nan nan nan nan nan nan nan nan nan nan nan nan nan nan nan
Wind_Direction
nan nan nan nan nan nan nan nan nan nan nan 295 295 302 294 286 nan nan 269 272 265 269 286 271 267 272 270 246 240 239 233 228 226 232 231 215 200 199 212 217 218 228 243 240 234 234 234 232 233 233 227 220 227 240 250 251 249 250 245 241 242 243 240 239 236 236 235 234 239 243 246 253 252 245 244 244 248 249 250 250 251 258 242 237 249 257 258
nan nan nan nan nan nan nan nan nan nan nan nan nan nan 296 303 295 280 274 288 270 257 266 269 259 253 248 245 241 241 240 234 228 226 232 nan 213 207 202 207 212 224 241 242 238 234 234 233 232 236 235 233 234 228 218 227 243 248 249 243 246 245 244 242 238 240 242 241 243 243 242 247 250 251 250 246 244 246 253 249 248 255 261 259 258 262 267
nan nan nan nan nan nan nan nan nan nan nan nan nan nan nan nan nan 279 279 271 264 258 254 257 257 259 257 253 249 244 239 238 237 227 224 217 216 218 214 212 211 209 212 225 231 234 238 236 235 237 239 237 237 240 238 224 216 217 230 245 248 247 249 245 243 243 244 247 246 244 244 242 244 249 251 251 252 249 247 251 253 260 259 259 264 267 269
nan nan nan nan nan nan nan nan nan nan nan nan nan nan nan nan 264 253 254 261 260 260 260 260 260 256 249 248 249 248 245 243 238 229 222 221 215 218 219 218 215 213 211 206 223 229 235 240 237 239 239 236 235 239 240 240 240 235 227 220 226 241 247 241 237 237 241 244 242 241 243 244 246 249 250 252 252 252 252 251 254 259 261 263 265 267 267
nan nan nan nan nan nan nan nan nan nan nan nan nan nan 267 nan nan 259 nan 264 269 270 270 261 251 250 248 249 249 246 246 247 246 241 244 238 233 228 224 219 216 217 220 222 223 224 232 232 237 242 242 237 237 238 237 232 235 242 242 239 232 217 224 235 229 226 219 213 224 239 241 246 250 252 254 255 255 254 256 261 266 266 267 266 266 265 267
nan nan nan nan nan nan nan nan nan nan nan nan nan nan nan 270 nan nan 267 274 263 257 257 261 256 251 247 247 246 242 244 249 250 257 252 246 241 239 232 226 222 222 221 220 228 233 239 232 234 244 245 242 239 238 237 236 236 232 235 238 243 238 222 226 237 236 242 246 234 234 238 243 249 251 253 256 257 258 260 263 268 269 270 270 268 268 266
nan nan nan nan nan nan nan nan nan nan nan nan nan nan nan 252 261 261 260 264 263 267 268 265 262 258 253 251 252 248 244 246 252 264 265 252 245 245 239 231 225 223 224 223 223 228 232 232 226 235 246 245 247 242 241 240 240 236 229 228 235 237 236 222 227 240 243 237 236 237 237 236 241 245 251 258 260 262 265 271 273 271 272 275 274 273 273
nan nan nan nan nan 225 nan nan nan nan nan nan nan 245 242 253 271 280 275 276 278 277 271 263 262 261 255 251 251 249 247 245 250 263 268 259 250 248 248 237 229 224 226 226 225 223 228 246 256 243 249 254 254 250 245 243 242 241 236 235 238 239 239 241 244 245 240 234 232 236 237 241 248 251 249 255 258 260 265 265 265 267 265 269 274 275 274
nan nan nan nan nan nan nan 235 nan nan nan nan nan 262 246 248 261 269 278 278 276 273 270 268 266 264 258 251 251 251 250 250 254 257 266 269 258 250 245 241 234 229 226 229 228 222 217 223 259 276 261 251 254 253 246 240 242 242 240 238 241 240 238 237 244 246 237 231 231 235 239 239 240 243 246 251 253 254 259 263 268 270 271 271 273 273 270
nan nan nan nan nan nan nan nan nan nan nan nan nan 281 268 239 252 271 280 282 281 281 280 273 266 266 263 255 250 250 251 253 254 254 255 263 263 253 240 230 229 225 226 230 229 nan nan 216 255 279 273 260 254 252 245 242 242 243 241 239 242 244 240 234 235 235 233 231 232 237 240 241 243 248 249 252 258 261 263 266 270 273 273 269 266 268 269
nan nan nan nan nan nan nan nan nan nan nan nan nan nan 270 269 263 269 278 287 295 297 293 286 275 263 260 253 253 252 250 249 252 252 252 254 261 264 246 234 231 228 226 228 nan nan nan nan 229 253 260 256 254 248 241 238 238 242 241 239 242 246 244 238 230 228 234 238 238 240 244 244 246 252 253 256 254 251 256 263 265 268 265 263 264 264 267
nan nan nan nan nan nan nan 232 nan nan nan nan nan nan 276 nan 275 280 288 297 300 299 290 287 276 264 257 252 252 252 254 255 252 251 253 254 258 259 244 238 240 239 nan nan nan nan 206 203 209 248 271 266 255 246 240 237 234 237 240 239 242 244 240 235 232 232 234 239 237 242 249 250 252 253 254 255 256 256 255 258 263 264 268 266 263 259 258
nan nan nan nan nan 246 242 nan nan nan nan nan nan nan 285 278 281 292 302 306 301 296 294 290 278 267 264 263 264 260 259 259 255 255 261 260 250 246 245 244 245 246 243 nan nan nan 214 214 223 243 260 263 263 254 246 241 235 235 239 238 239 240 235 235 237 239 239 242 243 244 247 249 250 250 253 258 259 258 256 256 265 267 263 262 267 269 265
nan nan nan nan 252 nan nan 246 245 247 nan nan 274 284 282 283 284 290 303 301 299 304 303 294 280 271 256 250 252 253 251 256 258 259 265 263 250 244 246 247 249 249 246 nan nan nan nan 225 234 242 252 263 268 263 252 246 244 243 240 236 236 237 237 238 238 240 237 238 242 245 246 247 248 247 250 256 255 255 257 259 259 259 260 nan 257 257 nan
nan nan nan nan nan nan 257 nan 249 249 263 276 281 279 279 281 293 299 295 293 300 303 299 293 285 274 267 264 263 259 255 251 247 248 258 264 251 240 236 234 237 242 nan nan nan nan 230 nan 232 239 256 265 274 275 261 248 242 241 241 239 239 241 240 240 239 238 236 237 238 240 244 245 248 251 253 nan nan nan nan nan nan nan nan nan nan nan nan
nan nan nan nan nan nan 261 nan 272 266 273 283 274 nan 272 268 286 291 290 290 298 301 299 297 288 279 277 273 270 264 248 241 239 238 245 252 250 245 246 246 245 nan nan nan nan nan 228 236 240 240 242 256 270 272 260 248 244 243 244 243 243 242 242 244 244 240 239 239 239 nan nan nan nan nan nan nan nan nan nan nan nan nan nan nan nan nan nan
nan nan nan nan 277 nan 275 279 283 283 282 277 273 277 280 282 278 288 290 295 297 299 297 296 296 289 279 273 265 259 249 246 245 244 247 250 246 242 nan nan nan nan nan nan 231 231 229 235 241 248 nan 250 255 257 252 246 242 242 242 243 242 242 243 246 248 246 nan nan nan 246 247 nan nan nan nan nan nan nan nan nan nan nan nan nan nan nan nan
253 256 nan 274 264 268 270 273 280 279 267 nan 262 259 268 281 291 291 291 291 294 293 296 299 297 289 283 272 263 258 252 243 244 245 245 243 241 242 241 240 243 244 243 244 238 226 234 237 237 237 238 nan 246 253 250 241 235 237 239 240 241 244 nan nan nan nan nan nan nan nan nan nan nan nan nan nan nan nan nan nan nan nan nan nan nan nan nan
nan nan 251 261 263 261 264 267 268 267 266 265 266 265 266 282 287 284 283 287 290 291 293 296 293 290 287 283 272 263 262 257 247 246 nan 232 231 237 239 237 nan nan 247 243 236 232 244 244 241 241 237 233 237 245 243 238 236 240 243 245 246 nan nan 251 248 nan nan nan nan nan nan nan nan nan nan nan nan nan nan nan nan nan nan nan nan nan nan
nan nan 249 256 260 264 266 272 271 269 268 267 270 275 274 283 288 288 286 281 284 287 289 289 289 290 289 287 281 268 262 257 250 247 nan nan 231 233 238 239 nan 241 244 nan nan 242 241 237 230 233 232 229 229 228 229 236 243 241 243 244 246 247 248 nan nan nan nan nan nan nan nan nan nan nan nan nan nan nan nan nan nan nan nan nan nan nan nan
nan 245 242 248 258 259 265 267 271 276 275 269 267 269 273 280 281 282 284 285 287 289 289 288 288 289 285 283 278 262 253 256 251 nan nan nan nan nan nan nan nan 247 246 nan nan nan 260 257 242 nan 235 238 nan 224 232 215 245 249 241 237 236 nan nan nan nan nan nan nan nan nan nan nan nan nan nan nan nan nan nan nan nan nan nan nan nan nan nan
nan 243 244 nan 256 260 260 266 271 270 271 273 275 275 273 278 276 280 287 289 288 290 294 292 290 289 284 277 272 264 252 250 248 nan nan nan nan nan nan nan nan nan nan nan nan nan 261 258 247 nan 218 nan 231 235 238 240 232 234 227 220 217 225 nan nan nan nan nan nan nan nan nan nan nan nan nan nan nan nan nan nan nan nan nan nan nan nan nan
250 247 248 253 264 265 267 268 262 260 262 269 271 272 272 274 276 277 284 290 289 292 294 288 290 287 284 276 270 265 259 253 249 247 nan nan nan nan nan nan nan nan nan nan nan nan nan 238 239 243 nan nan nan nan nan 230 234 233 nan nan nan nan nan nan nan nan nan nan nan nan nan nan nan nan nan nan nan nan nan nan nan nan nan nan nan nan nan
252 249 254 255 261 266 264 264 265 266 264 271 277 276 276 274 276 279 281 289 295 293 290 291 291 289 283 nan nan nan nan nan nan nan nan nan nan nan nan 235 nan nan nan nan nan nan nan 240 nan nan nan nan nan nan nan nan nan nan nan nan nan nan nan nan nan nan nan nan nan nan nan nan nan nan nan nan nan nan nan nan nan nan nan nan nan nan nan
260 262 263 263 265 265 265 266 268 270 271 270 268 263 266 277 275 279 280 278 270 283 294 294 291 nan nan nan nan nan nan nan nan nan nan nan nan nan nan nan nan nan nan nan nan nan nan nan nan nan nan nan nan nan nan nan nan nan nan nan nan nan nan nan nan nan nan nan nan nan nan nan nan nan nan nan nan nan nan nan nan nan nan nan nan nan nan
265 265 266 266 265 270 273 270 268 269 269 268 269 269 265 267 274 274 271 275 282 280 285 291 nan nan nan nan nan nan nan nan nan nan nan nan nan nan nan nan nan nan nan nan nan nan nan nan nan nan nan nan nan nan nan nan nan nan nan nan nan nan nan nan nan nan nan nan nan nan nan nan nan nan nan nan nan nan nan nan nan nan nan nan nan nan nan
259 265 270 267 270 269 270 276 278 275 271 270 271 270 271 270 272 275 274 272 274 283 285 284 nan nan nan nan nan nan nan nan nan nan nan nan 232 231 nan 233 234 nan nan nan nan nan nan nan nan nan nan nan nan nan nan nan nan nan nan nan nan nan nan nan nan nan nan nan nan nan nan nan 266 nan nan nan nan nan nan nan nan nan nan nan nan nan nan
260 259 262 268 273 273 272 273 275 275 275 274 274 273 272 274 275 278 280 278 276 nan nan nan nan nan nan nan nan nan nan nan 251 245 nan nan 234 233 nan nan nan nan nan nan nan nan nan nan nan nan nan nan nan nan nan nan nan nan nan nan nan nan nan nan nan nan nan nan nan nan nan nan nan nan nan nan nan nan nan nan nan nan nan nan nan nan nan
254 256 258 265 274 275 273 272 272 275 277 277 277 279 279 276 nan nan nan nan nan nan nan nan nan nan nan nan nan nan nan 255 248 246 nan 241 236 nan nan nan nan nan nan nan nan nan nan nan nan nan nan nan nan nan nan nan nan nan nan nan nan nan nan nan nan nan nan nan nan nan nan nan nan nan nan nan nan nan nan nan nan nan nan nan nan nan nan
254 258 264 269 275 279 278 275 275 278 279 281 281 281 nan nan nan nan nan nan nan nan nan nan nan nan nan nan nan nan 265 255 248 243 243 241 237 nan nan nan nan nan nan nan nan nan nan nan nan nan nan nan nan nan nan nan nan nan nan nan nan nan nan nan nan nan nan nan nan nan nan nan nan nan nan nan nan nan nan nan nan nan nan nan nan nan nan
256 260 266 270 274 274 275 276 274 277 282 282 282 nan nan nan nan nan nan nan nan nan nan nan nan 272 266 264 261 258 255 251 245 241 240 239 nan nan nan nan nan nan nan nan nan nan nan nan nan nan nan nan nan nan nan nan nan nan nan nan nan nan nan nan nan nan nan nan nan nan nan nan nan nan nan nan nan nan nan nan nan nan nan nan nan nan nan
258 261 267 268 271 272 272 272 274 277 280 283 284 nan nan nan nan nan nan nan nan nan nan nan nan 267 265 262 259 255 251 nan 244 240 236 234 236 nan nan nan nan nan nan nan nan nan nan nan nan nan nan nan nan nan nan nan nan nan nan nan nan nan nan nan nan nan nan nan nan nan nan nan nan nan nan nan nan nan nan nan nan nan nan nan nan nan nan
260 260 260 269 271 276 276 277 280 280 278 nan nan nan nan nan nan nan nan nan 288 nan nan nan nan nan nan nan 259 256 nan nan nan nan 239 nan nan nan nan nan nan nan nan nan nan nan nan nan nan nan nan nan nan nan nan nan nan nan nan nan nan nan nan nan nan nan nan nan nan nan nan nan nan nan nan nan nan nan nan nan nan nan nan nan nan nan nan
270 270 274 271 273 282 283 281 280 279 275 nan nan nan nan nan nan nan nan nan nan nan nan nan nan nan nan nan nan nan nan nan nan nan nan nan nan nan nan nan nan nan nan nan nan nan nan nan nan nan nan nan nan nan nan nan nan nan nan nan nan nan nan nan nan nan nan nan nan nan nan nan nan nan nan nan nan nan nan nan nan nan nan nan nan nan nan
256 257 264 266 270 278 277 280 283 282 nan nan nan nan nan nan nan nan nan nan nan nan nan nan nan nan nan nan nan nan nan nan nan nan nan nan nan nan nan nan nan nan nan nan nan nan nan nan nan nan nan nan nan nan nan nan nan nan nan nan nan nan nan nan nan nan nan nan nan nan nan nan nan nan nan nan nan nan nan nan nan nan nan nan nan nan nan
265 261 260 260 265 275 278 281 283 283 nan nan nan nan nan 294 nan 307 310 nan nan nan nan nan nan nan nan nan nan nan nan nan nan nan nan nan nan nan nan nan nan nan nan nan nan nan nan nan nan nan nan nan nan nan nan nan nan nan nan nan nan nan nan nan nan nan nan nan nan nan nan nan nan nan nan nan nan nan nan nan nan nan nan nan nan nan nan
267 267 261 260 260 269 277 278 280 280 nan nan nan nan nan nan nan nan nan nan nan nan 279 276 nan nan nan nan nan nan nan nan nan nan nan nan nan nan nan nan nan nan nan nan nan nan nan nan nan nan nan nan nan nan nan nan nan nan nan nan nan nan nan nan nan nan nan nan nan nan nan nan nan nan nan nan nan nan nan nan nan nan nan nan nan nan nan
263 265 264 263 265 270 276 279 278 276 nan nan nan nan nan nan nan nan nan nan nan nan nan nan nan nan nan nan nan nan nan nan nan nan nan nan nan nan nan nan nan nan nan nan nan nan nan nan nan nan nan nan nan nan nan nan nan nan nan nan nan nan nan nan nan nan nan nan nan nan nan nan nan nan nan nan nan nan nan nan nan nan nan nan nan nan nan
254 254 258 261 268 271 273 272 274 271 273 nan nan nan nan nan nan nan 313 325 328 nan nan nan nan nan nan nan nan nan nan nan nan nan nan nan nan nan nan nan nan nan nan nan nan nan nan nan nan nan nan nan nan nan nan nan nan nan nan nan nan nan nan nan nan nan nan nan nan nan nan nan nan nan nan nan nan nan nan nan nan nan nan nan nan nan nan
261 265 269 268 270 276 279 271 268 267 271 278 nan nan nan nan 288 300 314 326 340 nan 327 nan nan nan nan nan nan nan nan nan nan nan nan nan nan nan nan nan nan nan nan nan nan nan nan nan nan nan nan nan nan nan nan nan nan nan nan nan nan nan nan nan nan nan nan nan nan nan nan nan nan nan nan nan nan nan nan nan nan nan nan nan nan nan nan
264 265 265 268 272 276 279 264 263 270 273 276 nan nan nan 283 280 289 304 317 331 341 342 nan nan nan nan nan nan nan nan nan nan nan nan nan nan nan nan nan nan nan nan nan nan nan nan nan nan nan nan nan nan nan nan nan nan nan nan nan nan nan nan nan nan nan nan nan nan nan nan nan nan nan nan nan nan nan nan nan nan nan nan nan nan nan nan
260 262 263 263 260 259 258 250 257 268 266 268 nan 278 284 282 278 285 287 295 313 323 nan nan nan nan nan nan nan nan nan nan nan nan nan nan nan nan nan nan nan nan nan nan nan nan nan nan nan nan nan nan nan nan nan nan nan nan nan nan nan nan nan nan nan nan nan nan nan nan nan nan nan nan nan nan nan nan nan nan nan nan nan nan nan nan nan
262 262 262 259 255 250 252 250 255 265 257 256 264 270 276 269 263 265 272 286 300 293 nan nan nan nan nan nan nan nan nan nan nan nan nan nan nan nan nan nan nan nan nan nan nan nan nan nan nan nan nan nan nan nan nan nan nan nan nan nan nan nan nan nan nan nan nan nan nan nan nan nan nan nan nan nan nan nan nan nan nan nan nan nan nan nan nan
265 258 253 251 248 245 243 240 238 244 246 246 251 258 260 253 257 265 274 282 285 nan nan nan nan nan nan nan nan nan nan nan nan nan nan nan nan nan nan nan nan nan nan nan nan nan nan nan nan nan nan nan nan nan nan nan nan nan nan nan nan nan nan nan nan nan nan nan nan nan nan nan nan nan nan nan nan nan nan nan nan nan nan nan nan nan nan
266 259 254 249 245 239 236 232 233 240 237 237 242 247 248 248 252 258 268 272 nan nan nan nan nan nan nan nan nan nan nan nan nan nan nan nan nan nan nan nan nan nan nan nan nan nan nan nan nan nan nan nan nan nan nan nan nan nan nan nan nan nan nan nan nan nan nan nan nan nan nan nan nan nan nan nan nan nan nan nan nan nan nan nan nan nan nan
257 249 245 239 234 231 225 219 220 228 230 235 236 240 241 246 252 255 258 268 274 nan nan nan nan nan nan nan nan nan nan nan nan nan nan nan nan nan nan nan nan nan nan nan nan nan nan nan nan nan nan nan nan nan nan nan nan nan nan nan nan nan nan nan nan nan nan nan nan nan nan nan nan nan nan nan nan nan nan nan nan nan nan nan nan nan nan
255 248 248 249 233 207 196 209 221 227 232 230 234 233 239 247 250 247 250 264 267 nan nan 268 nan nan nan nan nan nan nan nan nan nan nan nan nan nan nan nan nan nan nan nan nan nan nan nan nan nan nan nan nan nan nan nan nan nan nan nan nan nan nan nan nan nan nan nan nan nan nan nan nan nan nan nan nan nan nan nan nan nan nan nan nan nan nan
258 250 242 245 246 238 206 196 226 228 228 227 228 231 240 246 247 242 249 254 259 266 266 264 265 265 260 nan nan nan nan nan nan nan nan nan nan nan nan nan nan nan nan nan nan nan nan nan nan nan nan nan nan nan nan nan nan nan nan nan nan nan nan nan nan nan nan nan nan nan nan nan nan nan nan nan nan nan nan nan nan nan nan nan nan nan nan
254 248 242 229 224 220 211 208 223 225 221 221 226 228 236 242 242 244 249 254 258 259 259 259 261 257 256 nan nan nan nan nan nan nan nan nan nan nan nan nan nan nan nan nan nan nan nan nan nan nan nan nan nan nan nan nan nan nan nan nan nan nan nan nan nan nan nan nan nan nan nan nan nan nan nan nan nan nan nan nan nan nan nan nan nan nan nan
248 244 244 245 235 214 202 195 209 224 224 224 225 228 232 237 240 240 245 251 253 252 252 253 251 nan nan nan nan nan nan nan nan nan nan nan nan nan nan nan nan nan nan nan nan nan nan nan nan nan nan nan nan nan nan nan nan nan nan nan nan nan nan nan nan nan nan nan nan nan nan nan nan nan nan nan nan nan nan nan nan nan nan nan nan nan nan
251 247 245 244 236 225 209 184 203 226 225 225 226 227 230 234 237 241 244 252 251 254 254 253 nan nan nan nan nan nan nan nan nan nan nan nan nan nan nan nan nan nan nan nan nan nan nan nan nan nan nan nan nan nan nan nan nan nan nan nan nan nan nan nan nan nan nan nan nan nan nan nan nan nan nan nan nan nan nan nan nan nan nan nan nan nan nan
251 242 232 221 211 205 201 188 199 224 224 228 227 228 228 232 236 240 245 259 257 256 259 258 nan nan nan nan nan nan nan nan nan nan nan nan nan nan nan nan nan nan nan nan nan nan nan nan nan nan nan nan nan nan nan nan nan nan nan nan nan nan nan nan nan nan nan nan nan nan nan nan nan nan nan nan nan nan nan nan nan nan nan nan nan nan nan